Location: Chiroubles
(46.1812°N, 4.6660°E)
Time: 14:59:29
(UTC+00:00)

Cosmos 1072 Rocket - Pass Details

Date: 15 August 2020
Orbit: 949 x 1008 km, 82.9° (Epoch: 23 September)

Event Time Altitude Azimuth Distance (km) Brightness Sun altitude
Exits shadow 23:20:40 81° 296° (WNW) 966 4.4 -29.9°
Drops below altitude 10° 23:26:43 10° 7° (N) 2,689 7.7 -30.0°
Sets 23:29:14 0° 8° (N) 3,643 8.6 -30.0°
